Find Starlink 34649

NORAD ID: 64798 Int'l Des: 2025-150 Owner: SPXS Country: US Constellation: starlink operational
LEOCIRCULAR

Aktuelle Ansicht

3D-Globus wird geladen...

Über Starlink 34649

Beschreibung wird geladen...

Nächste Überflüge

Passes for default location (London). Set your location on the main map for personalized predictions.

Höhenverlauf

Loading altitude history...

Zweizeiliger Elementsatz

1 64798U 25150J 26149.52922741 .00003061 00000-0 26422-3 0 9990
2 64798 70.0004 290.7172 0003102 267.0652 93.0152 14.98334696 49511
Epoch: 29. Mai 2026 • Age: 12 hours

Aktueller Status

Höhe 585.7 km
Geschwindigkeit 7.57 km/s
Subsatellitenpunkt 70.08°N, 124.65°E
Startdatum 16. Juli 2025
Alter 0.8 years
Typ internet

Technische Details

Klassifizierung Payload
Masse 575.00 kg
Trockenmasse 530.00 kg
Gesamtmasse 575.00 kg
Länge 0.30 m
Durchmesser 4.10 m
Spannweite 29.00 m
Form Box + pan
Hersteller SPXS
Bus-Typ Starlink V2MO
Phasenstatus In Orbit
Besitzer/Staat SPXS/US

Most Searched